Avoca, PA

5:04 AM EDT on September 22, 2019 (GMT -0400)
Wilkes-Barre-Scranton International

Weather History for KAVP - August, 2019

Change the Weather History Date:

Saturday, August 24, 2019

  Actual Average Record
Temperature  
Mean Temperature 64 °F 69 °F  
Max Temperature 75 °F 79 °F 92 °F (1947)
Min Temperature 52 °F 59 °F 44 °F (1971)
Degree Days  
Heating Degree Days 1 1  
Month to date heating degree days 1 7  
Since 1 June heating degree days 33 69  
Since 1 July heating degree days 1 15  
Cooling Degree Days 0 5  
Month to date cooling degree days 211 135  
Year to date cooling degree days 725 495  
Since 1 June cooling degree days 675 458  
Growing Degree Days 14 (Base 50)    
Moisture  
Dew Point 51 °F    
Average Humidity 69    
Maximum Humidity 100    
Minimum Humidity 38    
Precipitation  
Precipitation 0.00 in 0.11 in 2.97 in (1945)
Month to date precipitation 5.45 2.69  
Year to date precipitation 37.53 24.31  
Sea Level Pressure  
Sea Level Pressure 30.20 in    
Wind  
Wind Speed 5 mph (ENE)    
Max Wind Speed 15 mph    
Max Gust Speed 18 mph    
Visibility 10 miles    
Events      
T = Trace of Precipitation, MM = Missing Value Source: NWS Daily Summary

Daily Weather History Graph

Daily Weather History Graph

Search for Another Location

Airport or City:

Astronomy

Aug. 24, 2019 Rise Set
Actual Time 6:20 AM EDT 7:48 PM EDT
Civil Twilight 5:51 AM EDT 8:17 PM EDT
Nautical Twilight 5:16 AM EDT 8:52 PM EDT
Astronomical Twilight 4:39 AM EDT 9:29 PM EDT
Moon 12:11 AM EDT (8/24) 3:03 PM EDT (8/24)
Length of Visible Light 14h 25m
Length of Day
13h 28m
Last Quarter, 39% of the Moon is Illuminated
Aug 24
Last Quarter
Aug 30
New
Sep 5
First Quarter
Sep 14
Full
Sep 21
Last Quarter

Hourly Weather History & Observations

Time (EDT) Temp. Dew Point Humidity Pressure Visibility Wind Dir Wind Speed Gust Speed Precip Events Conditions
12:54 AM 55.9 °F 53.1 °F 90% 30.14 in 10.0 mi Calm Calm - N/A   Clear
1:54 AM 54.0 °F 52.0 °F 93% 30.14 in 10.0 mi SE 3.5 mph - N/A   Clear
2:54 AM 54.0 °F 52.0 °F 93% 30.14 in 10.0 mi SE 3.5 mph - N/A   Clear
3:54 AM 53.1 °F 51.1 °F 93% 30.15 in 10.0 mi ESE 3.5 mph - N/A   Clear
4:54 AM 52.0 °F 51.1 °F 97% 30.16 in 10.0 mi ESE 3.5 mph - N/A   Clear
5:54 AM 53.1 °F 51.1 °F 93% 30.18 in 10.0 mi ESE 3.5 mph - N/A   Clear
7:54 AM 57.0 °F 53.1 °F 87% 30.22 in 10.0 mi Calm Calm - N/A   Clear
8:54 AM 61.0 °F 54.0 °F 78% 30.24 in 10.0 mi Calm Calm - N/A   Clear
9:54 AM 64.0 °F 54.0 °F 70% 30.24 in 10.0 mi Variable 3.5 mph - N/A   Clear
10:54 AM 68.0 °F 52.0 °F 56% 30.23 in 10.0 mi Variable 4.6 mph - N/A   Clear
11:54 AM 69.1 °F 48.0 °F 47% 30.22 in 10.0 mi North 10.4 mph 18.4 mph N/A   Scattered Clouds
12:54 PM 72.0 °F 46.0 °F 40% 30.21 in 10.0 mi North 11.5 mph 17.3 mph N/A   Clear
1:54 PM 72.0 °F 46.9 °F 41% 30.20 in 10.0 mi North 10.4 mph 17.3 mph N/A   Mostly Cloudy
2:54 PM 72.0 °F 48.0 °F 43% 30.20 in 10.0 mi North 8.1 mph - N/A   Partly Cloudy
3:54 PM 73.9 °F 46.9 °F 38% 30.19 in 10.0 mi Variable 3.5 mph - N/A   Scattered Clouds
4:54 PM 75.0 °F 48.0 °F 38% 30.19 in 10.0 mi NNE 4.6 mph - N/A   Mostly Cloudy
5:54 PM 72.0 °F 48.0 °F 43% 30.19 in 10.0 mi North 8.1 mph - N/A   Overcast
6:54 PM 71.1 °F 48.9 °F 45% 30.20 in 10.0 mi North 5.8 mph - N/A   Scattered Clouds
7:54 PM 64.0 °F 54.0 °F 70% 30.22 in 10.0 mi East 4.6 mph - N/A   Mostly Cloudy
8:54 PM 63.0 °F 53.1 °F 70% 30.24 in 10.0 mi ESE 5.8 mph - N/A   Overcast
9:54 PM 62.1 °F 54.0 °F 75% 30.25 in 10.0 mi ESE 3.5 mph - N/A   Overcast
10:54 PM 61.0 °F 55.0 °F 81% 30.26 in 10.0 mi Calm Calm - N/A   Overcast
11:54 PM 61.0 °F 55.0 °F 81% 30.27 in 10.0 mi ESE 3.5 mph - N/A   Overcast